Regional Weather Roundup
Issued by NWS

Home | Current Version | Previous Version | Graphics & Text | Print | Product List | Glossary On
Versions: 1 2 3 4 5 6 7 8 9 10 11 12 13 14 15 16 17 18 19 20 21 22 23 24 25 26 27 28 29 30 31 32 33 34 35 36 37 38 39 40 41 42 43 44 45 46 47 48 49 50
000
ASUS45 KPSR 210710
RWRAZ

ARIZONA REGIONAL HOURLY WEATHER ROUNDUP
NATIONAL WEATHER SERVICE PHOENIX AZ
1200 AM MST TUE OCT 21 2014

NOTE: FAIR INDICATES FEW OR NO CLOUDS BELOW 12,000 FEET WITH NO
SIGNIFICANT WEATHER AND/OR OBSTRUCTIONS TO VISIBILITY.

AZZ001>003-036-210800-
NORTHWEST ARIZONA

CITY           SKY/WX    TMP DP  RH WIND       PRES   REMARKS
BULLHEAD CITY  CLEAR     73  45  35 CALM      29.82S
KINGMAN        CLEAR     62  44  51 S9        29.97S
$$

AZZ004>008-015-016-018-210800-
NORTH CENTRAL ARIZONA

CITY           SKY/WX    TMP DP  RH WIND       PRES   REMARKS
GRAND CANYON   PTCLDY    37  31  78 CALM      30.16S
PRESCOTT       CLEAR     50  40  68 S8        30.08S
FLAGSTAFF      CLEAR     39  35  86 CALM      30.18S
PAYSON         CLEAR     57  43  58 E3        30.11S
$$

AZZ009>014-017-210800-
NORTHEAST ARIZONA

CITY           SKY/WX    TMP DP  RH WIND       PRES   REMARKS
WINSLOW        CLEAR     51  42  71 E5        30.08S
SAINT JOHNS    CLEAR     48  45  89 CALM      30.13S
SHOW LOW       CLEAR     45  36  70 S7        30.18S
$$

AZZ023-210800-
GREATER PHOENIX AREA

CITY           SKY/WX    TMP DP  RH WIND       PRES   REMARKS
PHOENIX        CLEAR     74  55  51 E6        29.85R
BUCKEYE          N/A     70  48  46 E5        29.85R
LUKE AFB       CLEAR     68  52  57 N8        29.85S
DEER VALLEY    CLEAR     72  47  40 NE8       29.87S
SCOTTSDALE     CLEAR     71  53  52 CALM      29.88S
MESA-GATEWAY   CLEAR     66  54  63 SE3       29.89S
$$

AZZ027-028-210800-
SOUTHWEST MARICOPA COUNTY AND PINAL COUNTY

CITY           SKY/WX    TMP DP  RH WIND       PRES   REMARKS
CASA GRANDE    CLEAR     72  48  43 CALM      29.87F
$$

AZZ503-504-507>509-210800-
SOUTHEAST ARIZONA

CITY           SKY/WX    TMP DP  RH WIND       PRES   REMARKS
TUCSON         CLEAR     70  50  49 SE12      29.96S
DAVIS-MONTHAN  CLEAR     67  51  56 E5        29.94S
NOGALES        CLEAR     59  46  62 NE6       30.00F
SIERRA VISTA   CLEAR     55  45  67 SE6       30.06S
DOUGLAS        CLEAR     58  46  64 E6        30.03F
SAFFORD        CLEAR     62  50  64 E9        30.01R
$$

AZZ020-021-025-026-031-210800-
SOUTHWEST ARIZONA

CITY           SKY/WX    TMP DP  RH WIND       PRES   REMARKS
YUMA           CLEAR     78  60  53 SE5       29.79S
$$

CAZ031-033-041-043-047-048-061-210800-
SOUTHERN CALIFORNIA

CITY           SKY/WX    TMP DP  RH WIND       PRES   REMARKS
DOWNTOWN L.A.  MOCLDY    67  61  81 CALM      29.90S
L.A. AIRPORT   PTCLDY    67  64  90 CALM      29.90S
SAN DIEGO      MOCLDY    69  61  75 CALM      29.92F
BURBANK        CLEAR     64  59  83 E3        29.91S
ONTARIO        PTCLDY    63  59  87 W6        29.92S
RIVERSIDE      CLEAR     64  59  83 CALM      29.92F
PALM SPRINGS   CLEAR     76  54  46 CALM      29.82F
EL CENTRO NAS  CLEAR     75  49  39 W5        29.77S
IMPERIAL       CLEAR     75  54  47 W5        29.77S
BLYTHE         CLEAR     75  47  36 E5        29.79F
NEEDLES        CLEAR     77  44  30 CALM      29.81F
$$

NVZ020-UTZ003-210800-
SOUTHERN NEVADA-UTAH

CITY           SKY/WX    TMP DP  RH WIND       PRES   REMARKS
LAS VEGAS      MOCLDY    78  40  25 S14       29.81S
SALT LAKE CITY PTCLDY    64  40  41 SE10      29.90S
$$

NMZ009-TXZ055-210800-
NEW MEXICO-WEST TEXAS

CITY           SKY/WX    TMP DP  RH WIND       PRES   REMARKS
ALBUQUERQUE    PTCLDY    54  47  77 SE6       30.18S
EL PASO        MOCLDY    61  55  81 N9        30.07S
$$


........................KEY........................
SKY/WX - SKY CONDITION/WEATHER
TMP    - TEMPERATURE IN FAHRENHEIT
DP     - DEW POINT IN FAHRENHEIT
RH     - RELATIVE HUMIDITY IN PERCENT
WIND   - DIRECTION AND SPEED IN MILES PER HOUR (MPH)
VRB    - VARIABLE WIND DIRECTION
PRES   - MEAN SEA LEVEL PRESSURE IN INCHES OF MERCURY
         F - FALLING PRESSURE   R - RISING PRESSURE
         S - STEADY PRESSURE
VSB    - VISIBILITY IN MILES
HX     - HEAT INDEX IN FAHRENHEIT
WCI    - WIND CHILL INDEX IN FAHRENHEIT
TC     - TEMPERATURE IN CELSIUS WHICH IS ALSO KNOWN AS
         TEMPERATURE IN CENTIGRADE
AFB    - AIR FORCE BASE
         LUKE AFB IS LUKE AIR FORCE BASE
         DAVIS-MONTHAN IS DAVIS-MONTHAN AIR FORCE BASE
NAS    - NAVAL AIR STATION
         EL CENTRO NAS IS EL CENTRO NAVAL AIR STATION
N/A    - NOT AVAILABLE


USA.gov is the U.S. government's official web portal to all federal, state and local government web resources and services.